Location: Te Maire Creek
(41.1333°S, 175.9167°E)
Time: 23:14:24
(UTC+00:00)

Cosmos 1455 Rocket - Pass Details

Date: 19 May 2024
Orbit: 602 x 625 km, 82.5° (Epoch: 22 June)

Event Time Altitude Azimuth Distance (km) Brightness Sun altitude
Rises 18:11:05 0° 332° (NNW) 2,900 6.4 -13.3°
Reaches altitude 10° 18:13:27 10° 323° (NW) 2,005 5.5 -12.9°
Maximum altitude 18:17:33 35° 257° (WSW) 1,025 3.7 -12.2°
Drops below altitude 10° 18:21:42 10° 190° (S) 2,035 5.5 -11.4°
Sets 18:24:08 0° 180° (S) 2,950 6.4 -11.0°
